• In Hungary
  • List of Countries
  • For 7 days
  • Water Temperature
  • Satellite Maps
  • Weather Map
  • News
  • Weather Widgets
  • user-avatar
    Login

    Hourly Weather Dobrich

    Today, 24 October, Tuesday

    Time Temperature Precipitation Wind Pressure Humidity
    00:00 +14°C° 0.1 mm 5 mps 731 mmHg 90%
    01:00 +14°C° 0.1 mm 5 mps 731 mmHg 90%
    02:00 +14°C° 0.1 mm 5 mps 730 mmHg 91%
    03:00 +14°C° 0.1 mm 5 mps 730 mmHg 91%
    04:00 +14°C° 0.1 mm 5 mps 730 mmHg 91%
    05:00 +15°C° 0.1 mm 6 mps 730 mmHg 91%
    06:00 +15°C° 0.4 mm 6 mps 730 mmHg 88%
    07:00 +15°C° 0.4 mm 6 mps 731 mmHg 86%
    08:00 +15°C° 0.4 mm 6 mps 731 mmHg 83%
    09:00 +16°C° 0.4 mm 6 mps 731 mmHg 78%
    10:00 +17°C° 0.4 mm 6 mps 732 mmHg 72%
    11:00 +18°C° 0.4 mm 7 mps 732 mmHg 67%
    12:00 +18°C° 0.2 mm 7 mps 733 mmHg 66%
    13:00 +18°C° 0.2 mm 7 mps 733 mmHg 66%
    14:00 +18°C° 0.2 mm 7 mps 733 mmHg 66%
    15:00 +17°C° 0.4 mm 7 mps 734 mmHg 71%
    16:00 +16°C° 0.4 mm 6 mps 734 mmHg 76%
    17:00 +15°C° 0.4 mm 6 mps 734 mmHg 81%
    18:00 +15°C° 0.7 mm 6 mps 735 mmHg 82%
    19:00 +15°C° 0.7 mm 7 mps 736 mmHg 83%
    20:00 +14°C° 0.7 mm 7 mps 736 mmHg 85%
    21:00 +14°C° 0.7 mm 7 mps 737 mmHg 84%
    22:00 +13°C° 0.7 mm 8 mps 737 mmHg 84%
    23:00 +12°C° 0.7 mm 8 mps 738 mmHg 84%

    Tomorrow, 25 October, Wednesday

    Time Temperature Precipitation Wind Pressure Humidity
    00:00 +12°C° 0.4 mm 8 mps 738 mmHg 83%
    01:00 +11°C° 0.4 mm 9 mps 739 mmHg 82%
    02:00 +11°C° 0.4 mm 9 mps 739 mmHg 80%
    03:00 +10°C° 0.1 mm 9 mps 739 mmHg 78%
    04:00 +8°C° 0.1 mm 9 mps 740 mmHg 76%
    05:00 +7°C° 0.1 mm 10 mps 740 mmHg 75%
    06:00 +7°C° 0.2 mm 9 mps 740 mmHg 74%
    07:00 +7°C° 0.2 mm 9 mps 741 mmHg 74%
    08:00 +6°C° 0.2 mm 9 mps 742 mmHg 73%
    09:00 +6°C° 0.6 mm 9 mps 742 mmHg 73%
    10:00 +6°C° 0.6 mm 9 mps 743 mmHg 74%
    11:00 +6°C° 0.6 mm 9 mps 743 mmHg 74%
    12:00 +6°C° 0.7 mm 8 mps 743 mmHg 73%
    13:00 +7°C° 0.7 mm 8 mps 744 mmHg 73%
    14:00 +8°C° 0.7 mm 7 mps 744 mmHg 72%
    15:00 +8°C° 0.4 mm 7 mps 744 mmHg 71%
    16:00 +8°C° 0.4 mm 7 mps 745 mmHg 70%
    17:00 +8°C° 0.4 mm 6 mps 745 mmHg 69%
    18:00 +8°C° 0 mm 6 mps 745 mmHg 68%
    19:00 +8°C° 0 mm 6 mps 746 mmHg 67%
    20:00 +7°C° 0 mm 5 mps 746 mmHg 66%
    21:00 +7°C° 0 mm 5 mps 746 mmHg 67%
    22:00 +7°C° 0 mm 5 mps 747 mmHg 68%
    23:00 +6°C° 0 mm 5 mps 747 mmHg 69%

    Day after tomorrow, 26 October, Thursday

    Time Temperature Precipitation Wind Pressure Humidity
    00:00 +6°C° 0 mm 5 mps 747 mmHg 70%
    01:00 +5°C° 0 mm 5 mps 747 mmHg 70%
    02:00 +5°C° 0 mm 4 mps 747 mmHg 71%
    03:00 +5°C° 0 mm 4 mps 747 mmHg 73%
    04:00 +4°C° 0 mm 4 mps 747 mmHg 74%
    05:00 +4°C° 0 mm 4 mps 747 mmHg 76%
    06:00 +5°C° 0 mm 4 mps 747 mmHg 76%
    07:00 +5°C° 0 mm 4 mps 747 mmHg 76%
    08:00 +5°C° 0 mm 4 mps 748 mmHg 76%
    09:00 +7°C° 0 mm 4 mps 748 mmHg 72%
    10:00 +10°C° 0 mm 4 mps 748 mmHg 69%
    11:00 +11°C° 0 mm 4 mps 748 mmHg 66%
    12:00 +12°C° 0 mm 3 mps 747 mmHg 63%
    13:00 +13°C° 0 mm 3 mps 747 mmHg 60%
    14:00 +15°C° 0 mm 2 mps 747 mmHg 57%
    15:00 +14°C° 0 mm 2 mps 746 mmHg 60%
    16:00 +13°C° 0 mm 1 mps 746 mmHg 63%
    17:00 +13°C° 0 mm 1 mps 746 mmHg 67%
    18:00 +12°C° 0 mm 1 mps 746 mmHg 69%
    19:00 +11°C° 0 mm 1 mps 746 mmHg 72%
    20:00 +11°C° 0 mm 1 mps 746 mmHg 75%
    21:00 +11°C° 0 mm 1 mps 746 mmHg 77%
    22:00 +10°C° 0 mm 1 mps 746 mmHg 78%
    23:00 +9°C° 0 mm 2 mps 746 mmHg 80%

    27 October, Friday

    Time Temperature Precipitation Wind Pressure Humidity
    00:00 +9°C° 0 mm 2 mps 745 mmHg 81%
    01:00 +9°C° 0 mm 2 mps 745 mmHg 82%
    02:00 +8°C° 0 mm 2 mps 744 mmHg 83%
    03:00 +8°C° 0 mm 2 mps 744 mmHg 83%
    04:00 +8°C° 0 mm 2 mps 744 mmHg 83%
    05:00 +8°C° 0 mm 2 mps 743 mmHg 84%
    06:00 +8°C° 0 mm 2 mps 743 mmHg 82%
    07:00 +9°C° 0 mm 2 mps 743 mmHg 79%
    08:00 +9°C° 0 mm 2 mps 743 mmHg 77%
    09:00 +12°C° 0 mm 2 mps 743 mmHg 69%
    10:00 +14°C° 0 mm 2 mps 743 mmHg 62%
    11:00 +16°C° 0 mm 3 mps 742 mmHg 54%
    12:00 +17°C° 0 mm 3 mps 741 mmHg 51%
    13:00 +17°C° 0 mm 3 mps 741 mmHg 49%
    14:00 +18°C° 0 mm 3 mps 740 mmHg 46%
    15:00 +17°C° 0 mm 3 mps 739 mmHg 50%
    16:00 +16°C° 0 mm 3 mps 739 mmHg 54%
    17:00 +16°C° 0 mm 3 mps 738 mmHg 58%
    18:00 +14°C° 0 mm 3 mps 738 mmHg 62%
    19:00 +13°C° 0 mm 3 mps 737 mmHg 65%
    20:00 +13°C° 0 mm 3 mps 737 mmHg 68%
    21:00 +12°C° 0 mm 3 mps 737 mmHg 69%
    22:00 +12°C° 0 mm 3 mps 736 mmHg 70%
    23:00 +11°C° 0 mm 3 mps 736 mmHg 71%

    28 October, Saturday

    Time Temperature Precipitation Wind Pressure Humidity
    00:00 +11°C° 0 mm 3 mps 735 mmHg 71%
    01:00 +11°C° 0 mm 3 mps 735 mmHg 70%
    02:00 +11°C° 0 mm 3 mps 734 mmHg 70%
    03:00 +11°C° 0 mm 3 mps 733 mmHg 68%
    04:00 +11°C° 0 mm 3 mps 733 mmHg 67%
    05:00 +11°C° 0 mm 3 mps 733 mmHg 65%
    06:00 +12°C° 0 mm 3 mps 733 mmHg 64%
    07:00 +12°C° 0 mm 3 mps 733 mmHg 62%
    08:00 +12°C° 0 mm 3 mps 733 mmHg 60%
    09:00 +12°C° 0.2 mm 4 mps 733 mmHg 63%
    10:00 +13°C° 0.2 mm 5 mps 733 mmHg 65%
    11:00 +13°C° 0.2 mm 5 mps 734 mmHg 68%
    12:00 +12°C° 0.5 mm 5 mps 734 mmHg 70%
    13:00 +12°C° 0.5 mm 5 mps 733 mmHg 71%
    14:00 +12°C° 0.5 mm 5 mps 733 mmHg 73%
    15:00 +12°C° 0.1 mm 4 mps 733 mmHg 71%
    16:00 +12°C° 0.1 mm 3 mps 733 mmHg 69%
    17:00 +12°C° 0.1 mm 3 mps 733 mmHg 67%
    18:00 +11°C° 0 mm 3 mps 734 mmHg 68%
    19:00 +10°C° 0 mm 3 mps 734 mmHg 69%
    20:00 +9°C° 0 mm 3 mps 734 mmHg 70%
    21:00 +9°C° 0 mm 3 mps 734 mmHg 70%
    22:00 +9°C° 0 mm 3 mps 734 mmHg 69%
    23:00 +8°C° 0 mm 3 mps 734 mmHg 69%

    29 October, Sunday

    Time Temperature Precipitation Wind Pressure Humidity
    00:00 +8°C° 0 mm 3 mps 733 mmHg 70%
    01:00 +7°C° 0 mm 3 mps 733 mmHg 71%
    02:00 +7°C° 0 mm 3 mps 733 mmHg 72%
    03:00 +7°C° 0 mm 3 mps 733 mmHg 71%
    04:00 +7°C° 0 mm 2 mps 732 mmHg 70%
    05:00 +7°C° 0 mm 2 mps 732 mmHg 70%
    06:00 +8°C° 0 mm 2 mps 732 mmHg 67%
    07:00 +8°C° 0 mm 3 mps 732 mmHg 65%
    08:00 +9°C° 0 mm 3 mps 732 mmHg 63%
    09:00 +10°C° 0 mm 4 mps 731 mmHg 60%
    10:00 +12°C° 0 mm 5 mps 731 mmHg 57%
    11:00 +14°C° 0 mm 7 mps 731 mmHg 54%
    12:00 +14°C° 0 mm 7 mps 730 mmHg 57%
    13:00 +15°C° 0 mm 7 mps 729 mmHg 59%
    14:00 +16°C° 0 mm 8 mps 729 mmHg 61%
    15:00 +16°C° 0 mm 7 mps 728 mmHg 65%
    16:00 +15°C° 0 mm 6 mps 728 mmHg 69%
    17:00 +14°C° 0 mm 5 mps 727 mmHg 74%
    18:00 +14°C° 0 mm 6 mps 727 mmHg 76%
    19:00 +14°C° 0 mm 6 mps 727 mmHg 79%
    20:00 +14°C° 0 mm 6 mps 727 mmHg 81%
    21:00 +14°C° 0 mm 6 mps 726 mmHg 84%
    22:00 +14°C° 0 mm 7 mps 726 mmHg 86%
    23:00 +14°C° 0 mm 7 mps 725 mmHg 88%

    30 October, Monday

    Time Temperature Precipitation Wind Pressure Humidity
    00:00 +14°C° 0 mm 7 mps 725 mmHg 88%
    01:00 +15°C° 0 mm 7 mps 725 mmHg 88%
    02:00 +15°C° 0 mm 7 mps 724 mmHg 88%
    03:00 +15°C° 0 mm 7 mps 724 mmHg 86%
    04:00 +15°C° 0 mm 8 mps 724 mmHg 85%
    05:00 +15°C° 0 mm 8 mps 723 mmHg 84%
    06:00 +15°C° 0 mm 8 mps 724 mmHg 82%
    07:00 +16°C° 0 mm 8 mps 724 mmHg 81%
    08:00 +16°C° 0 mm 8 mps 724 mmHg 79%
    09:00 +17°C° 0 mm 9 mps 724 mmHg 72%
    10:00 +18°C° 0 mm 9 mps 725 mmHg 65%
    11:00 +19°C° 0 mm 10 mps 725 mmHg 58%
    12:00 +19°C° 0.1 mm 9 mps 725 mmHg 58%
    13:00 +18°C° 0.1 mm 9 mps 725 mmHg 58%
    14:00 +18°C° 0.1 mm 8 mps 725 mmHg 58%
    15:00 +16°C° 0.3 mm 7 mps 725 mmHg 62%
    16:00 +14°C° 0.3 mm 6 mps 725 mmHg 66%
    17:00 +12°C° 0.3 mm 5 mps 725 mmHg 69%
    18:00 +10°C° 0.1 mm 5 mps 726 mmHg 69%
    19:00 +9°C° 0.1 mm 5 mps 726 mmHg 69%
    20:00 +9°C° 0.1 mm 5 mps 726 mmHg 69%
    21:00 +8°C° 0.1 mm 5 mps 727 mmHg 69%
    22:00 +8°C° 0.1 mm 5 mps 727 mmHg 68%
    23:00 +8°C° 0.1 mm 5 mps 727 mmHg 68%
    Show more